M0JGD Weather Reports


time (UTC)temp
C
wind
direction
speed
KPH
gust
KPH
rain 1hr
cm
rain 24hr
cm
rain mn
cm
humidity
%
barometer
mb
20260507103054 15 194 0.0 6.4 0.00 0.00 0.00 60 1014.0
20260507101556 15 0 0.0 4.8 0.00 0.00 0.00 56 1013.9
20260507100056 15 0 0.0 4.8 0.00 0.00 0.00 54 1014.1
20260507094554 15 0 0.0 8.0 0.00 0.00 0.00 56 1014.1
20260507093056 15 0 0.0 4.8 0.00 0.00 0.00 58 1014.0
20260507091551 13 0 0.0 3.2 0.00 0.00 0.00 68 1013.8
20260507090054 12 0 0.0 3.2 0.00 0.00 0.00 76 1014.0
20260507084553 11 0 0.0 0.0 0.00 0.00 0.00 77 1014.1
20260507083053 10 0 0.0 0.0 0.00 0.00 0.00 82 1013.9
20260507081553 10 0 0.0 3.2 0.00 0.00 0.00 86 1013.8
20260507080113 9 0 0.0 0.0 0.00 0.00 0.00 88 1013.9
20260507074552 8 0 0.0 3.2 0.00 0.00 0.00 90 1013.8
20260507073112 8 0 0.0 1.6 0.00 0.00 0.00 92 1013.8
20260507071609 7 0 0.0 0.0 0.00 0.00 0.00 92 1013.8
20260507070056 6 0 0.0 0.0 0.00 0.00 0.00 92 1013.6
20260507064554 5 0 0.0 0.0 0.00 0.00 0.00 91 1013.5
20260507063057 5 0 0.0 0.0 0.00 0.00 0.00 91 1013.5
20260507061559 5 0 0.0 0.0 0.00 0.00 0.00 91 1013.5
20260507060054 5 0 0.0 0.0 0.00 0.00 0.00 91 1013.5
20260507054552 4 0 0.0 0.0 0.00 0.00 0.00 90 1013.4
20260507053121 4 0 0.0 0.0 0.00 0.00 0.00 90 1013.3
20260507051601 4 0 0.0 0.0 0.00 0.00 0.00 89 1013.2
20260507050108 4 0 0.0 0.0 0.00 0.00 0.00 89 1013.1
20260507044559 4 0 0.0 0.0 0.00 0.00 0.00 89 1013.3
20260507043057 5 0 0.0 0.0 0.00 0.00 0.00 89 1013.1
20260507041555 4 0 0.0 0.0 0.00 0.00 0.00 88 1013.0
20260507034556 5 0 0.0 0.0 0.00 0.00 0.00 88 1013.1
20260507033055 5 0 0.0 1.6 0.00 0.00 0.00 88 1013.0
20260507031556 5 0 0.0 0.0 0.00 0.00 0.00 87 1012.9
20260507030057 5 0 0.0 0.0 0.00 0.00 0.00 87 1012.9
20260507024604 6 0 0.0 0.0 0.00 0.00 0.00 86 1012.9
20260507023056 6 0 0.0 0.0 0.00 0.00 0.00 86 1013.0
20260507021557 6 0 0.0 0.0 0.00 0.00 0.00 86 1012.8
20260507020109 6 0 0.0 0.0 0.00 0.00 0.00 85 1012.6
20260507014612 7 0 0.0 0.0 0.00 0.00 0.00 84 1012.5
20260507013056 7 0 0.0 0.0 0.00 0.00 0.00 84 1012.5
20260507011610 7 0 0.0 0.0 0.00 0.00 0.00 84 1012.6
20260507010113 8 0 0.0 0.0 0.00 0.00 0.00 84 1012.6
20260507004615 8 0 0.0 0.0 0.00 0.00 0.00 82 1012.7
20260507003102 8 0 0.0 0.0 0.00 0.00 0.00 81 1012.5
20260507001604 8 0 0.0 0.0 0.00 0.00 0.00 80 1012.8
20260507000056 8 0 0.0 0.0 0.00 0.00 0.00 79 1012.7
20260506234557 8 0 0.0 0.0 0.00 0.00 0.00 78 1012.7
20260506233058 9 0 0.0 0.0 0.00 0.00 0.00 77 1012.6
20260506231553 9 0 0.0 0.0 0.00 0.00 0.00 76 1012.6
20260506230104 9 0 0.0 0.0 0.00 0.00 0.00 76 1012.5
20260506224552 9 0 0.0 0.0 0.00 0.00 0.00 76 1012.7
20260506223053 10 0 0.0 0.0 0.00 0.00 0.00 76 1012.7
20260506221557 10 0 0.0 0.0 0.00 0.00 0.00 75 1012.4
20260506220057 10 0 0.0 0.0 0.00 0.00 0.00 74 1012.4
20260506214603 10 0 0.0 0.0 0.00 0.00 0.00 74 1012.4
20260506213055 10 0 0.0 0.0 0.00 0.00 0.00 73 1012.5
20260506211600 10 0 0.0 0.0 0.00 0.00 0.00 72 1012.3
20260506204554 10 0 0.0 0.0 0.00 0.00 0.00 71 1012.2
20260506203053 10 0 0.0 0.0 0.00 0.00 0.00 70 1012.2
20260506201556 11 0 0.0 0.0 0.00 0.00 0.00 69 1012.0
20260506200104 11 0 0.0 0.0 0.00 0.00 0.00 68 1011.8
20260506194605 11 0 0.0 0.0 0.00 0.00 0.00 67 1011.5
20260506193055 11 0 0.0 3.2 0.00 0.00 0.00 66 1011.5
20260506191606 11 0 0.0 1.6 0.00 0.00 0.00 66 1011.3
20260506190054 11 0 0.0 1.6 0.00 0.00 0.00 65 1011.2
20260506184557 11 0 0.0 3.2 0.00 0.00 0.00 64 1011.0
20260506183106 11 0 0.0 3.2 0.00 0.00 0.00 63 1010.9
20260506181602 12 0 0.0 1.6 0.00 0.00 0.00 62 1010.9
20260506180113 12 0 0.0 0.0 0.00 0.00 0.00 62 1010.8
20260506174623 12 0 0.0 0.0 0.00 0.00 0.00 62 1010.5
20260506173135 12 0 0.0 3.2 0.00 0.00 0.00 61 1010.7
20260506171556 12 0 0.0 3.2 0.00 0.00 0.00 60 1010.4
20260506170057 13 0 0.0 0.0 0.00 0.00 0.00 58 1010.3
20260506164553 13 0 0.0 0.0 0.00 0.00 0.00 58 1010.4
20260506163100 13 0 0.0 3.2 0.00 0.00 0.00 57 1010.4
20260506161557 13 0 0.0 3.2 0.00 0.00 0.00 58 1010.3
20260506160100 13 0 0.0 3.2 0.00 0.00 0.00 56 1010.4
20260506154558 13 157 0.0 3.2 0.00 0.00 0.00 55 1010.5
20260506153057 13 88 1.6 4.8 0.00 0.00 0.00 54 1010.5
20260506151555 13 55 1.6 8.0 0.00 0.00 0.00 52 1010.3
20260506150059 14 0 0.0 3.2 0.00 0.00 0.00 48 1010.2
20260506144606 15 48 1.6 11.3 0.00 0.00 0.00 47 1010.3
20260506143052 16 54 1.6 4.8 0.00 0.00 0.00 44 1010.1
20260506141556 16 86 1.6 4.8 0.00 0.00 0.00 44 1010.2
20260506140055 15 84 1.6 11.3 0.00 0.00 0.00 48 1010.0
20260506134605 14 68 4.8 14.5 0.00 0.00 0.00 48 1010.2
20260506133101 15 91 1.6 6.4 0.00 0.00 0.00 46 1010.3
20260506131556 15 89 1.6 6.4 0.00 0.00 0.00 46 1010.3
20260506130054 15 88 1.6 8.0 0.00 0.00 0.00 46 1010.3
20260506124552 15 0 1.6 19.3 0.00 0.00 0.00 47 1010.3
20260506123054 14 111 3.2 12.9 0.00 0.00 0.00 49 1010.4
20260506121554 13 59 1.6 9.7 0.00 0.00 0.00 50 1010.3
20260506120111 13 355 1.6 16.1 0.00 0.00 0.00 50 1010.3
20260506114554 13 73 1.6 12.9 0.00 0.00 0.00 50 1010.3
20260506113100 13 0 1.6 8.0 0.00 0.00 0.00 51 1010.3
20260506111555 14 74 0.0 12.9 0.00 0.00 0.00 52 1010.4
20260506110057 14 0 1.6 14.5 0.00 0.00 0.00 53 1010.4
20260506104558 13 52 0.0 4.8 0.00 0.00 0.00 55 1010.6